Location: Castillon
(43.0896°N, 0.2156°E)
Time: 20:28:08
(UTC+00:00)

MINOTAUR IV R/B - Pass Details

Date: 16 June 2021
Orbit: 623 x 640 km, 72.0° (Epoch: 18 July)

Event Time Altitude Azimuth Distance (km) Brightness Sun altitude
Exits shadow 23:36:39 74° 125° (SE) 663 4.5 -23.3°
Maximum altitude 23:36:45 74° 111° (ESE) 662 4.5 -23.3°
Drops below altitude 10° 23:41:18 10° 27° (NNE) 2,030 8.0 -23.4°
Sets 23:43:35 0° 25° (NNE) 2,946 9.0 -23.4°
